Temperature
23 24 24 25 25 25 25 25 25 25 25 25 25 24 22 21 21 20 19 19 17 16 14 14 14 14 14 15 15 16 16 16 16 16 16 16 16 16 16 16 16 16 16 16
23 24 24 24 24 24 25 25 25 24 24 24 24 23 22 21 20 19 18 17 17 16 14 13 13 13 13 14 14 15 15 15 15 16 16 16 15 15 15 15 15 15 15 16
24 24 24 24 24 24 24 25 25 24 24 24 24 23 22 21 19 18 17 16 15 14 14 13 12 12 13 13 13 14 14 14 15 15 15 15 15 15 15 15 15 15 15 15
24 24 24 24 24 24 24 25 25 24 24 24 24 24 23 21 20 19 17 16 15 14 13 12 12 11 12 12 12 13 13 14 14 14 14 14 14 14 14 14 14 14 14 15
24 24 24 24 24 25 25 25 25 25 25 24 24 24 24 22 21 20 17 16 14 13 12 11 11 11 11 11 12 12 13 13 13 13 14 13 13 13 13 13 13 14 14 14
24 24 24 24 24 24 25 24 24 25 25 23 24 24 24 23 22 21 18 15 14 13 12 11 10 10 10 10 11 12 12 12 13 13 13 13 13 13 13 13 13 13 13 13
23 24 25 24 24 24 24 24 23 23 23 23 24 23 23 22 21 21 18 15 13 12 12 11 10 10 10 10 10 11 11 12 12 12 12 12 12 12 12 12 12 12 12 12
23 23 24 25 25 24 24 24 23 22 23 24 23 23 23 21 19 18 17 14 13 12 11 11 10 9 9 10 10 10 10 11 11 11 11 11 12 11 11 11 11 12 12 12
23 23 24 24 25 25 24 24 25 23 23 23 23 23 21 18 18 17 15 14 13 12 11 10 9 9 9 9 9 9 10 10 10 10 10 10 10 10 11 11 11 11 11 11
23 23 24 24 24 24 25 24 24 23 22 22 23 23 23 20 19 17 15 13 12 11 10 9 9 9 8 8 8 9 9 9 9 9 9 9 9 10 10 10 10 10 10 10
22 22 23 24 23 24 23 23 23 23 23 22 21 22 23 22 20 18 16 13 12 11 10 9 8 8 8 8 8 8 8 8 8 8 9 9 9 9 9 9 9 9 9 10
22 22 22 23 23 23 24 23 23 22 22 22 22 22 20 20 20 18 16 13 11 10 9 9 8 8 8 8 8 7 8 8 8 8 8 8 8 8 8 8 8 9 9 9
21 21 21 22 22 23 23 23 23 22 22 21 21 22 19 19 18 16 14 12 10 9 9 8 8 8 7 7 7 7 7 7 7 7 7 8 8 8 8 8 8 8 8 8
19 21 21 21 21 22 22 22 22 22 22 21 22 22 20 19 17 15 13 11 9 9 8 8 7 7 7 7 7 7 7 7 7 7 7 7 7 7 7 7 7 7 7 7
20 20 21 22 22 22 22 22 22 22 22 22 22 22 21 19 17 14 12 10 9 8 8 8 7 7 7 7 7 7 7 6 6 6 6 6 6 6 7 6 6 7 7 7
19 20 20 21 22 22 22 22 22 22 22 22 22 21 19 17 15 13 11 10 9 8 8 7 7 7 7 6 6 6 6 6 6 6 6 6 6 6 6 6 6 6 6 6
19 19 19 20 21 21 21 22 22 22 22 21 20 20 18 16 14 12 10 9 9 8 8 7 7 7 6 6 6 6 6 6 6 6 6 6 6 6 6 6 6 6 6 6
17 18 19 20 20 19 21 21 21 21 21 20 19 18 17 14 13 11 10 9 8 8 7 7 7 6 6 6 6 6 6 6 6 6 6 5 5 5 5 5 5 5 5 5
16 17 19 19 19 20 20 20 20 20 19 18 18 16 14 12 11 10 9 9 8 8 7 7 7 6 6 6 6 6 6 6 6 6 5 5 5 5 5 5 5 5 5 5
16 16 18 18 18 18 19 19 19 19 18 17 16 15 13 13 14 12 9 8 8 7 7 7 6 6 6 6 6 6 6 6 6 6 5 5 5 5 5 5 5 5 5 5
17 17 17 18 18 19 17 18 19 18 16 15 15 14 13 14 14 11 9 8 7 7 7 6 6 6 6 6 6 6 6 6 5 5 5 5 5 5 5 5 5 5 5 5
17 17 17 18 18 17 16 17 17 15 15 14 14 13 13 11 10 9 8 7 7 7 6 6 6 6 6 6 6 6 6 5 5 5 5 5 5 5 5 5 5 5 5 5
16 16 16 17 16 15 14 14 14 13 14 13 13 12 11 10 9 8 7 7 7 6 6 6 6 6 6 5 6 6 5 5 5 5 5 5 5 5 5 5 5 5 5 6
16 16 16 16 17 15 14 13 13 13 13 13 12 11 11 10 9 8 7 7 6 6 6 6 6 6 6 5 6 6 5 5 5 5 5 5 5 5 5 5 5 5 6 6
15 15 16 16 16 15 14 13 12 12 12 12 11 11 10 9 8 8 7 7 6 6 6 6 6 6 6 6 5 5 5 5 5 5 5 5 5 5 5 5 5 5 5 5
15 15 15 15 14 14 13 12 12 11 11 11 10 10 9 9 8 8 7 7 6 6 6 6 6 6 6 6 6 5 5 5 5 5 5 5 5 5 5 5 5 5 5 5
Wind_Speed
7 8 7 6 2 1 4 5 6 6 4 5 7 8 8 7 6 5 4 4 4 5 7 8 9 9 8 9 9 8 7 6 4 2 3 3 4 3 3 3 4 6 6 7
8 7 4 3 2 3 5 6 6 7 5 3 6 7 7 6 5 4 4 4 4 4 6 7 8 9 9 9 9 8 7 7 5 3 3 2 3 2 2 2 2 4 5 5
5 5 3 4 5 6 6 5 5 5 6 5 6 8 9 7 6 5 4 4 5 5 5 7 8 9 9 9 9 8 8 7 6 5 3 2 2 2 2 2 2 2 3 4
4 4 4 5 5 6 6 3 3 5 7 5 6 6 9 10 8 7 6 5 4 4 5 6 7 8 9 9 8 8 8 7 7 6 4 3 2 2 2 2 1 1 1 2
5 4 4 4 3 4 2 2 4 6 6 5 6 7 5 9 8 9 8 6 5 5 5 6 6 7 8 8 8 8 8 8 8 7 5 3 2 1 1 1 1 1 0 1
3 3 3 1 2 2 3 5 5 7 8 8 5 7 3 5 5 7 9 8 7 5 5 5 6 6 7 8 8 8 8 9 9 8 7 5 4 3 2 2 1 1 1 2
7 6 4 3 5 6 5 6 5 7 7 4 3 5 0 4 2 4 9 9 8 6 5 5 6 6 7 8 9 8 9 9 9 9 8 7 6 5 4 3 2 2 2 2
8 8 6 3 3 3 4 7 5 5 4 2 4 4 3 5 4 5 8 10 9 7 6 6 6 6 7 8 8 8 8 9 9 8 8 7 7 5 5 5 3 3 3 3
5 5 6 2 2 4 4 5 4 7 7 7 4 2 5 5 6 7 9 10 9 7 6 6 6 6 7 7 8 7 7 8 8 8 8 8 8 7 7 6 5 4 4 4
3 4 5 4 5 2 3 2 4 6 5 6 4 5 2 8 9 10 11 10 9 8 7 6 6 6 7 7 7 7 7 8 8 8 8 7 8 8 7 7 8 7 6 6
4 5 5 7 6 4 4 4 5 5 6 6 6 2 4 2 7 11 12 11 11 9 8 6 5 6 6 6 6 7 7 7 8 8 8 8 8 8 8 8 8 7 7 7
3 4 6 5 1 2 4 4 5 6 5 6 8 3 6 2 4 9 11 12 11 9 8 7 6 6 6 6 6 7 7 7 7 7 8 9 8 8 9 9 8 8 8 7
2 4 6 6 6 6 5 4 5 5 6 7 8 2 5 4 6 9 12 13 11 10 9 7 6 6 5 6 6 7 7 7 7 7 8 9 9 9 9 9 9 9 9 9
4 5 7 6 3 3 5 6 6 8 8 8 9 8 1 4 7 10 12 13 12 11 9 8 7 6 5 6 6 6 7 7 7 8 9 9 9 9 9 9 9 9 10 10
4 6 6 7 6 6 8 8 8 9 10 11 10 9 5 4 8 11 13 13 12 11 10 8 7 6 6 6 6 6 7 7 7 8 9 9 8 9 9 9 10 10 10 11
3 5 6 8 7 8 10 9 8 8 8 10 10 6 5 6 9 11 13 14 13 12 10 9 8 7 7 6 6 6 6 6 7 8 8 8 8 9 9 9 10 10 11 11
4 4 6 7 6 8 8 4 5 5 5 6 7 3 6 7 9 11 13 13 13 12 11 10 8 7 7 6 6 6 6 7 7 8 8 8 9 9 9 9 10 11 11 11
6 6 5 6 6 8 0 3 3 4 3 4 3 3 4 6 8 9 10 12 12 12 11 10 9 8 7 7 7 7 7 7 7 8 8 8 8 9 9 9 10 9 9 10
9 6 5 6 7 6 2 3 5 4 2 6 4 6 8 10 9 7 8 10 11 12 11 10 10 9 8 7 7 7 7 7 7 8 7 7 8 8 9 9 10 9 9 9
6 7 6 6 6 4 3 7 6 5 2 7 4 6 8 9 4 6 10 11 12 12 11 10 10 10 9 7 7 8 8 7 7 7 7 7 8 8 9 9 9 8 8 9
4 5 7 8 6 1 8 9 7 3 4 5 2 4 7 3 3 12 14 13 13 12 12 11 11 10 9 8 7 7 8 8 7 7 8 8 8 8 9 9 8 8 8 9
3 3 3 4 4 1 11 7 6 6 6 3 2 4 5 7 13 15 15 15 14 13 13 12 10 10 9 8 7 7 8 8 7 8 8 8 8 7 8 8 8 8 8 9
2 4 4 3 3 5 6 6 6 5 3 3 3 5 8 11 14 15 15 14 14 13 13 11 11 11 9 8 8 9 8 7 8 8 9 8 8 7 7 7 8 7 6 7
2 4 4 3 2 5 5 6 6 4 3 3 4 7 9 13 15 15 14 14 13 13 12 11 12 11 9 8 8 8 7 7 8 8 8 8 8 8 7 5 6 6 6 6
5 5 4 4 4 3 5 7 6 4 4 5 7 8 10 15 15 15 14 14 13 13 12 11 11 10 10 9 8 8 7 7 8 8 8 8 8 8 7 8 7 7 8 7
3 4 5 3 5 5 6 6 4 2 4 6 8 9 11 14 15 15 14 13 13 13 12 11 11 11 10 9 9 8 7 7 8 8 7 7 7 6 7 8 8 13 10 11
Wind_Direction
186 202 185 165 202 120 170 178 163 134 141 184 167 150 146 154 162 153 147 131 110 83 62 46 37 31 30 27 21 15 8 360 341 291 251 236 237 239 227 222 227 235 240 239
188 180 148 154 185 210 200 190 159 137 137 179 161 158 153 162 163 153 147 132 113 90 66 47 37 31 27 23 17 13 7 359 346 330 292 267 268 252 244 240 228 241 243 248
180 120 151 200 195 202 201 207 173 152 150 170 182 188 179 166 163 154 143 124 100 80 58 46 35 27 24 22 15 11 6 358 352 339 296 261 239 236 234 246 244 261 260 249
177 146 195 208 191 211 183 177 194 184 205 189 218 241 176 175 183 178 166 149 119 90 68 49 36 28 22 17 14 14 11 10 6 357 341 305 267 257 277 290 284 286 303 275
165 174 201 194 164 221 137 156 207 216 233 235 214 262 168 175 200 190 177 162 135 109 82 63 45 32 24 18 18 19 20 22 16 11 8 349 332 316 321 334 323 281 315 333
191 198 232 188 153 182 159 178 193 220 231 236 224 263 221 175 206 178 167 160 145 124 98 77 60 44 33 27 30 28 27 29 25 21 21 21 21 23 42 30 351 357 39 34
187 183 179 202 187 174 212 231 225 219 223 231 160 259 291 106 119 162 162 157 147 131 108 85 62 46 36 33 32 32 33 32 29 28 28 27 31 37 43 35 26 29 40 35
194 180 172 185 233 216 220 250 264 268 259 242 182 250 103 110 117 133 143 145 144 133 109 87 68 53 42 38 34 34 37 37 35 35 34 37 40 41 49 46 45 43 42 36
212 183 152 171 225 253 221 244 300 278 271 273 245 188 149 147 154 151 147 148 148 133 114 95 78 62 51 43 37 37 40 43 42 43 45 47 49 52 56 55 52 50 46 45
261 231 187 173 192 187 282 243 245 261 275 271 256 243 226 180 185 173 169 163 152 139 121 101 83 68 58 52 49 47 48 50 51 51 53 56 52 51 55 59 56 53 51 49
258 245 205 200 221 216 201 215 257 270 285 286 289 313 61 132 179 179 174 165 156 146 130 115 99 82 73 67 62 59 56 57 56 55 56 59 57 56 57 59 58 54 55 54
246 257 239 215 166 273 247 252 251 269 272 271 288 309 93 106 161 170 162 155 149 141 132 123 109 98 87 77 70 66 63 63 62 63 65 64 61 60 62 63 61 60 59 58
270 244 237 204 188 194 220 228 251 270 276 272 277 294 113 131 147 154 151 149 146 144 139 131 118 105 95 85 77 73 70 68 68 70 71 68 65 64 64 65 64 63 65 64
278 250 256 260 282 242 244 250 247 254 269 279 281 299 195 163 159 154 151 151 150 149 146 139 129 117 104 93 84 80 76 73 72 72 72 70 67 68 70 71 69 66 67 69
307 253 257 273 277 266 268 270 265 258 270 281 298 305 329 164 167 158 153 152 153 154 152 144 135 127 117 105 95 86 82 78 79 78 76 73 74 75 75 75 73 71 69 70
321 275 269 263 256 261 266 267 267 266 272 280 289 305 62 117 140 148 154 157 160 160 154 147 142 135 124 115 106 100 93 91 89 85 83 82 81 79 78 78 78 76 73 71
285 269 265 261 264 265 250 267 278 274 289 296 307 4 117 136 149 157 160 164 163 160 156 150 147 139 130 123 117 111 105 100 95 90 87 85 84 84 83 84 82 79 78 76
264 266 262 267 266 249 340 39 335 303 344 3 18 81 124 133 137 147 158 163 160 160 156 152 149 142 136 128 120 116 112 106 99 93 91 90 90 90 89 88 85 82 80 79
226 246 254 257 257 256 166 35 347 312 55 45 61 100 112 120 124 136 152 155 157 155 150 147 146 142 137 130 127 123 113 106 101 97 94 93 93 95 97 94 92 90 88 85
191 226 244 249 259 262 47 10 335 282 163 49 68 126 142 161 177 151 151 148 144 142 142 143 142 140 136 132 134 125 117 110 102 98 95 93 93 94 97 98 98 96 93 90
192 208 230 247 253 261 25 346 311 287 16 16 55 146 168 188 69 127 140 141 140 139 139 142 142 140 138 137 135 124 116 107 104 102 100 96 94 95 97 98 99 103 100 95
286 254 236 254 254 62 17 5 13 4 355 17 85 138 137 107 116 129 136 138 139 140 143 145 142 137 136 138 135 125 113 110 112 110 107 102 100 98 98 100 101 103 105 104
335 348 329 327 10 38 26 15 3 351 3 51 104 127 128 131 134 136 138 139 141 143 145 147 141 134 134 138 133 123 119 122 120 115 109 105 100 96 101 107 109 109 108 106
328 333 306 308 19 20 30 19 18 22 41 82 118 133 137 138 140 139 140 141 144 145 149 149 142 138 137 137 129 122 122 122 119 115 114 112 109 107 101 96 95 96 95 96
303 304 300 295 335 355 28 17 16 40 89 112 121 130 137 141 143 143 143 146 147 148 149 147 143 141 139 137 133 130 128 127 121 118 116 116 111 106 98 81 59 68 62 51
291 302 310 332 358 337 340 349 353 73 123 129 129 128 136 143 144 144 143 144 146 146 146 146 145 143 139 138 134 130 131 131 129 127 126 123 120 115 112 109 95 58 62 65
Height
1502 1498 1494 1493 1493 1492 1493 1493 1495 1498 1500 1499 1501 1507 1513 1518 1519 1521 1524 1526 1528 1529 1530 1530 1529 1529 1528 1528 1527 1527 1527 1527 1528 1529 1529 1530 1531 1532 1532 1533 1534 1535 1536 1537
1499 1496 1495 1496 1497 1497 1495 1495 1496 1499 1501 1501 1503 1508 1513 1517 1520 1523 1525 1527 1528 1530 1530 1530 1530 1529 1528 1527 1526 1526 1526 1526 1526 1526 1527 1528 1529 1529 1529 1530 1530 1531 1532 1532
1492 1494 1497 1497 1497 1497 1495 1493 1494 1497 1501 1501 1504 1508 1510 1516 1520 1523 1525 1527 1529 1530 1530 1530 1529 1528 1528 1527 1526 1525 1525 1524 1524 1524 1525 1526 1526 1526 1527 1527 1527 1527 1528 1528
1493 1495 1497 1495 1494 1493 1495 1492 1494 1496 1498 1497 1501 1502 1503 1509 1516 1520 1524 1526 1528 1530 1530 1530 1530 1529 1528 1527 1526 1525 1524 1523 1523 1522 1523 1523 1524 1524 1524 1524 1524 1524 1524 1524
1493 1493 1494 1494 1493 1493 1492 1493 1493 1494 1494 1497 1498 1500 1496 1503 1509 1515 1521 1525 1528 1529 1530 1530 1530 1529 1528 1527 1526 1524 1523 1523 1522 1521 1521 1521 1522 1522 1522 1521 1521 1521 1521 1521
1492 1493 1493 1492 1493 1494 1493 1494 1494 1493 1491 1502 1496 1500 1497 1497 1502 1508 1518 1524 1527 1529 1530 1530 1530 1529 1528 1527 1525 1524 1523 1522 1521 1521 1520 1520 1520 1520 1519 1519 1519 1519 1519 1519
1493 1491 1491 1492 1491 1493 1492 1494 1500 1501 1501 1499 1493 1499 1498 1499 1504 1508 1515 1522 1526 1529 1530 1530 1530 1529 1528 1527 1525 1524 1523 1522 1521 1520 1519 1519 1518 1518 1517 1517 1517 1517 1517 1518
1494 1495 1489 1490 1490 1490 1491 1492 1501 1509 1504 1495 1496 1498 1496 1503 1509 1512 1516 1521 1526 1528 1529 1530 1530 1529 1528 1527 1526 1524 1523 1522 1521 1520 1519 1518 1517 1517 1516 1516 1516 1516 1516 1516
1491 1492 1488 1490 1490 1488 1490 1488 1487 1495 1494 1499 1492 1493 1500 1507 1510 1513 1517 1522 1525 1528 1529 1530 1530 1529 1528 1527 1526 1525 1524 1523 1522 1520 1519 1518 1518 1517 1516 1516 1516 1516 1516 1516
1491 1494 1487 1489 1489 1490 1487 1488 1492 1495 1505 1506 1496 1493 1491 1499 1505 1512 1517 1521 1525 1528 1529 1530 1530 1530 1529 1528 1527 1526 1525 1524 1523 1521 1520 1519 1518 1518 1517 1517 1516 1516 1516 1516
1493 1496 1491 1489 1489 1488 1491 1492 1491 1490 1493 1503 1505 1496 1489 1492 1499 1506 1513 1519 1523 1526 1528 1530 1530 1530 1530 1529 1528 1528 1527 1525 1524 1523 1522 1521 1520 1519 1519 1518 1518 1518 1517 1517
1495 1493 1492 1488 1487 1489 1488 1489 1492 1499 1498 1496 1498 1496 1494 1496 1500 1505 1512 1518 1523 1526 1528 1530 1531 1531 1531 1530 1530 1529 1528 1527 1526 1525 1524 1523 1522 1522 1521 1520 1520 1519 1519 1518
1497 1497 1499 1496 1495 1491 1489 1489 1490 1493 1495 1496 1499 1496 1497 1498 1501 1506 1512 1518 1522 1526 1528 1530 1531 1531 1532 1532 1531 1531 1530 1529 1528 1527 1526 1525 1525 1524 1523 1522 1522 1522 1521 1520
1501 1497 1497 1500 1495 1489 1490 1489 1489 1492 1492 1493 1490 1488 1491 1496 1501 1507 1513 1518 1522 1525 1528 1530 1531 1532 1533 1533 1532 1532 1531 1531 1530 1529 1528 1527 1527 1526 1526 1525 1524 1524 1524 1523
1501 1496 1493 1490 1488 1488 1489 1487 1486 1488 1487 1490 1486 1485 1486 1493 1500 1507 1513 1518 1522 1525 1528 1530 1532 1533 1534 1534 1534 1533 1533 1533 1532 1531 1530 1529 1529 1529 1528 1528 1528 1527 1527 1527
1501 1498 1494 1493 1488 1487 1488 1485 1484 1484 1484 1484 1484 1485 1491 1496 1502 1508 1513 1517 1521 1525 1528 1530 1532 1533 1534 1535 1535 1535 1535 1534 1534 1534 1533 1532 1532 1531 1531 1531 1531 1530 1530 1530
1500 1500 1498 1494 1487 1488 1488 1483 1483 1482 1482 1484 1487 1489 1494 1499 1504 1509 1513 1517 1520 1524 1527 1530 1532 1533 1535 1536 1536 1536 1536 1536 1536 1536 1536 1535 1535 1534 1534 1534 1534 1534 1534 1534
1506 1501 1497 1494 1493 1498 1487 1484 1484 1484 1484 1486 1489 1493 1497 1502 1507 1510 1514 1517 1521 1524 1527 1530 1532 1534 1536 1537 1537 1538 1538 1538 1538 1538 1538 1538 1538 1537 1537 1537 1538 1538 1538 1538
1505 1502 1497 1495 1493 1489 1485 1486 1486 1486 1488 1492 1493 1497 1501 1505 1509 1513 1515 1518 1521 1524 1527 1530 1532 1535 1536 1538 1539 1540 1540 1540 1540 1540 1541 1541 1541 1541 1541 1541 1541 1542 1542 1543
1502 1502 1499 1494 1497 1495 1492 1490 1489 1490 1491 1497 1497 1500 1503 1505 1504 1510 1515 1518 1522 1525 1528 1530 1533 1535 1537 1539 1540 1541 1542 1542 1542 1543 1543 1543 1543 1544 1544 1544 1545 1546 1546 1547
1498 1499 1497 1495 1494 1489 1495 1492 1488 1493 1499 1499 1499 1501 1503 1503 1504 1510 1514 1519 1522 1525 1528 1531 1534 1536 1538 1540 1541 1543 1543 1544 1545 1545 1545 1546 1546 1546 1547 1547 1548 1549 1551 1551
1497 1496 1495 1494 1494 1498 1498 1494 1496 1500 1500 1500 1501 1502 1504 1506 1508 1511 1515 1519 1523 1526 1529 1532 1535 1537 1540 1541 1543 1544 1545 1546 1547 1547 1548 1548 1549 1550 1550 1551 1552 1553 1554 1555
1500 1501 1498 1498 1500 1502 1502 1502 1502 1502 1501 1501 1502 1504 1505 1507 1510 1514 1517 1521 1524 1528 1531 1534 1536 1539 1541 1543 1545 1546 1547 1548 1549 1550 1550 1551 1552 1553 1554 1554 1555 1557 1558 1559
1501 1503 1501 1499 1497 1501 1502 1502 1502 1502 1502 1502 1503 1505 1507 1509 1512 1515 1519 1522 1526 1529 1532 1535 1538 1540 1542 1545 1546 1547 1548 1549 1551 1551 1552 1553 1554 1556 1557 1558 1559 1560 1561 1562
1506 1504 1501 1500 1501 1502 1503 1504 1503 1503 1503 1504 1505 1507 1508 1510 1514 1517 1521 1524 1528 1531 1534 1537 1539 1542 1544 1546 1548 1549 1550 1551 1552 1554 1555 1556 1557 1558 1559 1560 1561 1563 1563 1564
1505 1505 1503 1502 1504 1505 1505 1504 1504 1504 1504 1505 1506 1508 1510 1512 1515 1519 1523 1526 1529 1532 1535 1538 1541 1543 1546 1548 1549 1551 1552 1553 1554 1556 1557 1559 1560 1561 1563 1564 1564 1565 1566 1567